[[{"header":{"parameterUnit":"m.s-1","parameterCategory":1,"la1":30.2991,"la2":30.254,"lo1":-89.0895,"lo2":-89.0444,"dy":0.0017,"dx":0.0017,"nx":28,"ny":28,"refTime":"2024-02-15T09:00:00:Z","depth":0,"parameterNumber":2,"parameterNumberName":"U-component_of_WINDS"},"data":[0,0,0,0,0,0,0,0,0,0,0,0,0,0,0,0,0,0,0,0,0,0,0,0,0,0,0,0,0,0,0,0,0,0,0,0,0,0,0,0,0,0,0,0,0,0,0,0,0,0,0,0,0,0,0,0,0,0,-0.9174,-0.9174,0,-0.9169,-0.9169,-0.9169,-0.9129,-0.9128,-0.9127,-0.9126,-0.9122,-0.9123,-0.9123,0,0,0,0,0,0,0,0,0,0,0,0,0,-0.9152,-0.9153,-0.9174,-0.9174,-0.9174,-0.9169,-0.9169,-0.9169,-0.9129,-0.9128,-0.9127,-0.9126,-0.9122,-0.9122,-0.9123,0,0,0,0,0,0,0,0,0,0,0,0,0,-0.9156,-0.9153,-0.9174,-0.9154,-0.9152,-0.9169,-0.9169,-0.9169,-0.913,-0.9128,-0.9127,-0.9125,-0.9121,-0.9122,-0.9124,-0.916,0,0,-0.9127,-0.9128,0,0,0,0,0,0,0,0,-0.9156,-0.9157,-0.9157,-0.9155,-0.9153,-0.9148,-0.9159,-0.9166,-0.913,-0.9138,-0.9126,-0.9125,-0.9132,-0.9132,-0.9134,-0.916,-0.916,-0.9127,-0.9128,-0.9129,-0.9129,0,0,0,0,0,0,0,-0.9155,-0.9157,-0.9172,-0.9157,-0.9155,-0.9146,-0.9144,-0.9161,-0.9143,-0.9137,-0.9134,-0.9134,-0.9131,-0.9133,-0.9134,-0.916,-0.9127,-0.9128,-0.9129,-0.9129,-0.9217,-0.9218,0,0,0,0,0,0,-0.9158,-0.9157,-0.9172,-0.9172,-0.9151,-0.9147,-0.9146,-0.9151,-0.9143,-0.914,-0.9136,-0.9132,-0.9132,-0.9133,-0.9134,-0.9176,-0.9128,-0.913,-0.913,-0.9215,-0.9217,-0.9219,0,0,0,0,0,0,-0.9158,-0.916,-0.9173,-0.9164,-0.9165,-0.9149,-0.9156,-0.9152,-0.9155,-0.9142,-0.9139,-0.9141,-0.9131,-0.9132,-0.9154,-0.9176,-0.913,-0.9131,-0.9213,-0.9216,-0.9218,-0.9262,0,0,0,0,0,0,-0.9157,-0.916,-0.9173,-0.9164,-0.9165,-0.9193,-0.9157,-0.9153,-0.9157,-0.9153,-0.9146,-0.9144,-0.913,-0.9153,-0.9155,-0.9176,-0.9132,-0.9211,-0.9214,-0.9217,-0.9258,-0.9265,-0.9272,0,0,0,0,0,-0.9156,-0.9185,-0.9174,-0.9176,-0.9181,-0.9194,-0.9195,-0.9177,-0.9159,-0.9172,-0.9164,-0.9144,-0.9173,-0.9155,-0.9158,-0.918,-0.921,-0.9213,-0.9217,-0.9255,-0.9264,-0.9271,0,0,0,0,0,0,-0.9197,-0.9184,-0.9171,-0.9198,-0.9197,-0.9187,-0.9203,-0.9187,-0.9192,-0.9188,-0.9167,-0.9166,-0.9192,-0.9188,-0.9168,-0.9215,-0.9188,-0.9192,-0.9216,-0.9225,-0.9231,-0.9231,-0.9133,0,0,0,0,0,-0.9209,-0.922,-0.9208,-0.9233,-0.9234,-0.9219,-0.9224,-0.9211,-0.921,-0.9209,-0.9203,-0.9203,-0.9212,-0.9218,-0.9226,-0.9258,-0.9257,-0.9275,-0.9282,-0.9287,-0.9291,-0.9308,-0.9316,-0.9231,-0.9231,-0.923,0,0,-0.9234,-0.9228,-0.9236,-0.9241,-0.9239,-0.9252,-0.9219,-0.9233,-0.9242,-0.9211,-0.9232,-0.9228,-0.9226,-0.9254,-0.9266,-0.9252,-0.9314,-0.9292,-0.9296,-0.9297,-0.9313,-0.9321,-0.9328,-0.9233,-0.9233,-0.9232,0,0,-0.9285,-0.9282,-0.9303,-0.9302,-0.93,-0.929,-0.9295,-0.9288,-0.9284,-0.9304,-0.9282,-0.9293,-0.9309,-0.9309,-0.9311,-0.9366,-0.9347,-0.9369,-0.9403,-0.942,-0.9427,-0.9433,-0.9452,-0.9459,-0.9373,-0.9373,-0.9373,0,-0.9316,-0.9333,-0.9315,-0.9331,-0.9335,-0.9308,-0.9329,-0.933,-0.933,-0.9333,-0.9318,-0.9338,-0.9336,-0.9363,-0.9377,-0.9379,-0.9385,-0.9369,-0.9427,-0.9433,-0.9438,-0.9456,-0.9464,-0.9375,-0.9375,-0.9375,-0.9375,0,-0.9372,-0.9384,-0.9402,-0.9403,-0.9408,-0.9427,-0.9413,-0.942,-0.9408,-0.94,-0.9422,-0.9418,-0.9425,-0.9431,-0.9419,-0.9457,-0.9449,-0.9431,-0.9403,-0.9449,-0.9466,-0.9473,-0.9379,-0.9378,-0.9377,-0.9377,0,0,-0.9446,-0.9439,-0.9445,-0.9446,-0.9443,-0.9452,-0.9471,-0.9478,-0.9485,-0.9487,-0.9502,-0.9517,-0.9501,-0.9504,-0.9491,-0.9507,-0.955,-0.9487,-0.9487,-0.9498,-0.9593,-0.9606,-0.9614,-0.9539,-0.954,-0.9541,-0.9593,0,-0.9495,-0.9525,-0.951,-0.9542,-0.9554,-0.953,-0.9546,-0.9547,-0.9541,-0.955,-0.9544,-0.9555,-0.9533,-0.9534,-0.9549,-0.9542,-0.9569,-0.9538,-0.9553,-0.9554,-0.9553,-0.9623,-0.9636,-0.9685,-0.96,-0.9601,-0.9601,0,-0.9556,-0.9561,-0.9594,-0.9589,-0.9594,-0.9608,-0.9614,-0.9624,-0.9624,-0.9619,-0.9623,-0.9608,-0.9626,-0.96,-0.9625,-0.9605,-0.961,-0.9608,-0.961,-0.9609,-0.9579,-0.9624,-0.97,-0.9707,-0.9612,-0.9611,-0.961,0,-0.9606,-0.9621,-0.9643,-0.9645,-0.964,-0.9651,-0.965,-0.9649,-0.9655,-0.966,-0.9664,-0.9671,-0.9676,-0.9682,-0.967,-0.9652,-0.9698,-0.967,-0.9694,-0.9694,-0.9703,-0.9702,-0.9781,-0.9708,-0.9708,-0.9708,-0.9708,0,-0.9662,-0.9683,-0.9666,-0.9679,-0.9703,-0.9687,-0.9711,-0.9707,-0.9707,-0.9719,-0.97,-0.9713,-0.9696,-0.9708,-0.9699,-0.9721,-0.9723,-0.972,-0.9717,-0.9721,-0.9721,-0.9723,-0.9719,-0.971,-0.971,-0.9709,-0.9709,0,-0.9721,-0.9711,-0.9733,-0.9728,-0.9727,-0.9745,-0.974,-0.9753,-0.9746,-0.9763,-0.9766,-0.9756,-0.9768,-0.9757,-0.9769,-0.9763,-0.9793,-0.9786,-0.9793,-0.9791,-0.9815,-0.9813,-0.9896,-0.9906,-0.9829,-0.983,-0.983,0,-0.9757,-0.9772,-0.9769,-0.9776,-0.9776,-0.9788,-0.9794,-0.978,-0.9787,-0.979,-0.9802,-0.9813,-0.9821,-0.9842,-0.9836,-0.9846,-0.9838,-0.9867,-0.9839,-0.9843,-0.9838,-0.9837,-0.9838,-0.9872,-0.9873,-0.9874,-0.9874,0,-0.9821,-0.9815,-0.9824,-0.9832,-0.9839,-0.9845,-0.9848,-0.9856,-0.9841,-0.985,-0.9863,-0.9869,-0.9882,-0.9893,-0.9901,-0.9901,-0.9885,-0.9883,-0.9889,-0.9893,-0.9896,-0.9894,-0.9807,-0.9881,-0.988,-0.988,-0.9879,-0.9879,-0.9869,-0.9882,-0.9882,-0.9893,-0.9895,-0.9899,-0.9911,-0.9907,-0.9917,-0.9926,-0.9917,-0.9933,-0.9935,-0.9944,-0.9945,-0.9958,-0.9945,-0.9954,-0.9956,-0.9958,-0.9962,-0.9895,-0.9959,-0.9959,-0.9959,-0.9958,-0.9958,0,-0.9931,-0.9931,-0.9941,-0.9947,-0.9957,-0.9942,-0.9946,-0.9955,-0.9968,-0.9971,-0.998,-0.9995,-1.0006,-1.0002,-1.0012,-1.0023,-1.0017,-1.0026,-1.0025,-1.0025,-0.9972,-0.9965,-1.0032,-1.0032,-1.0032,-1.0032,-1.0032,-1.0032,-0.9965,-0.9986,-0.9982,-1.0004,-1.0004,-1.0019,-1.0022,-1.0027,-1.0029,-1.0047,-1.0056,-1.0054,-1.0054,-1.0064,-1.0074,-1.0073,-1.0077,-1.009,-1.0086,-1.0036,-1.0029,-1.0022,-1.0015,-1.0091,-1.0091,-1.0138,-1.0138,-1.0138]},{"header":{"parameterUnit":"m.s-1","parameterCategory":1,"la1":30.2991,"la2":30.254,"lo1":-89.0895,"lo2":-89.0444,"dy":0.0017,"dx":0.0017,"nx":28,"ny":28,"refTime":"2024-02-15T09:00:00:Z","depth":0,"parameterNumber":3,"parameterNumberName":"V-component_of_WINDS"},"data":[0,0,0,0,0,0,0,0,0,0,0,0,0,0,0,0,0,0,0,0,0,0,0,0,0,0,0,0,0,0,0,0,0,0,0,0,0,0,0,0,0,0,0,0,0,0,0,0,0,0,0,0,0,0,0,0,0,0,1.8173,1.8173,0,1.8209,1.821,1.821,1.8261,1.8262,1.8263,1.8264,1.8298,1.8298,1.8298,0,0,0,0,0,0,0,0,0,0,0,0,0,1.8145,1.8145,1.8173,1.8173,1.8174,1.8209,1.821,1.821,1.8261,1.8262,1.8263,1.8264,1.8298,1.8298,1.8298,0,0,0,0,0,0,0,0,0,0,0,0,0,1.8166,1.8145,1.8173,1.8203,1.8207,1.8209,1.821,1.821,1.8261,1.8262,1.8263,1.8265,1.8298,1.8298,1.8298,1.8272,0,0,1.8298,1.8298,0,0,0,0,0,0,0,0,1.8165,1.8167,1.8198,1.8201,1.8205,1.8232,1.8212,1.8231,1.826,1.824,1.8264,1.8265,1.8275,1.8277,1.8281,1.8274,1.8275,1.8298,1.8298,1.8298,1.8299,0,0,0,0,0,0,0,1.8163,1.8166,1.8187,1.8199,1.8203,1.8214,1.8219,1.8216,1.8249,1.8242,1.8246,1.8249,1.8277,1.828,1.8282,1.8276,1.8298,1.8298,1.8299,1.8299,1.8249,1.8248,0,0,0,0,0,0,1.8158,1.8164,1.8186,1.8188,1.8188,1.8214,1.8219,1.8222,1.825,1.8255,1.8248,1.8252,1.8279,1.8281,1.8283,1.8254,1.8298,1.8299,1.8299,1.8251,1.8249,1.8247,0,0,0,0,0,0,1.8157,1.8159,1.8184,1.8177,1.8181,1.8213,1.8216,1.8222,1.8226,1.8254,1.826,1.8246,1.8281,1.8283,1.8275,1.8256,1.8299,1.8299,1.8252,1.825,1.8248,1.8197,0,0,0,0,0,0,1.8156,1.8159,1.815,1.8177,1.8182,1.8176,1.8215,1.8222,1.8226,1.8231,1.8254,1.8259,1.8282,1.8274,1.8275,1.8257,1.8299,1.8254,1.8251,1.8249,1.82,1.8193,1.8187,0,0,0,0,0,1.8155,1.8133,1.8149,1.8151,1.8171,1.8175,1.8178,1.8205,1.8224,1.8215,1.8234,1.8258,1.8258,1.8273,1.8274,1.8256,1.8255,1.8252,1.8249,1.8203,1.8194,1.8187,0,0,0,0,0,0,1.8102,1.8137,1.8155,1.8142,1.8155,1.8184,1.8173,1.8195,1.8202,1.8206,1.8239,1.8244,1.8231,1.8243,1.8259,1.8232,1.826,1.8257,1.8225,1.8217,1.8211,1.8208,1.8299,0,0,0,0,0,1.8089,1.809,1.8121,1.8106,1.8112,1.8141,1.8144,1.8164,1.8178,1.8184,1.8202,1.8214,1.8217,1.8218,1.8222,1.8202,1.8208,1.8191,1.8184,1.8179,1.8175,1.8165,1.8157,1.8237,1.8237,1.8237,0,0,1.8062,1.8082,1.808,1.8096,1.8108,1.8107,1.8145,1.8143,1.8142,1.8183,1.8177,1.819,1.8206,1.8192,1.8186,1.8201,1.8154,1.8175,1.817,1.817,1.8161,1.8153,1.8147,1.8235,1.8235,1.8236,0,0,1.8012,1.8027,1.8017,1.8029,1.8048,1.8067,1.8065,1.809,1.8101,1.8095,1.8125,1.8125,1.8129,1.8139,1.8144,1.8098,1.8121,1.8099,1.8064,1.8054,1.8047,1.8042,1.8025,1.8018,1.8095,1.8095,1.8095,0,1.7976,1.7977,1.8008,1.8004,1.801,1.8048,1.8036,1.8046,1.8065,1.8068,1.8084,1.809,1.8104,1.8092,1.8081,1.8084,1.8081,1.8096,1.8046,1.8041,1.8036,1.802,1.8013,1.8092,1.8093,1.8093,1.8093,0,1.7931,1.7931,1.792,1.7938,1.7942,1.7935,1.7964,1.7965,1.7984,1.8002,1.7995,1.8013,1.8021,1.802,1.8039,1.801,1.8019,1.804,1.8069,1.8025,1.801,1.8005,1.8088,1.8089,1.809,1.8091,0,0,1.7848,1.7884,1.7879,1.7888,1.7912,1.7912,1.7905,1.7914,1.7914,1.7926,1.792,1.7923,1.7943,1.7949,1.797,1.7961,1.7922,1.7983,1.7984,1.7971,1.7891,1.7874,1.7866,1.7938,1.7937,1.7936,1.7889,0,1.7802,1.7794,1.7822,1.7806,1.7806,1.7843,1.7837,1.785,1.7866,1.7868,1.7886,1.7887,1.7914,1.7918,1.7911,1.7928,1.7906,1.7932,1.7932,1.7931,1.7926,1.7859,1.7841,1.7796,1.7884,1.7883,1.7882,0,1.7747,1.7757,1.7741,1.7766,1.7767,1.7761,1.7772,1.7773,1.7789,1.7801,1.7808,1.7832,1.7826,1.7855,1.7847,1.7864,1.7865,1.7874,1.7873,1.7873,1.7903,1.7856,1.7783,1.7776,1.7874,1.7874,1.7875,0,1.7687,1.7696,1.7688,1.7694,1.7723,1.7718,1.773,1.7747,1.775,1.7759,1.7761,1.7769,1.7773,1.7778,1.7803,1.7821,1.7791,1.7822,1.78,1.7799,1.7791,1.7791,1.7716,1.7794,1.7794,1.7794,1.7794,0,1.7632,1.7621,1.7662,1.7656,1.7645,1.7677,1.7664,1.7679,1.7694,1.7691,1.7723,1.772,1.7754,1.7754,1.7774,1.7763,1.7765,1.7774,1.7779,1.7771,1.7769,1.7771,1.7774,1.7792,1.7793,1.7793,1.7793,0,1.7563,1.759,1.7583,1.7611,1.7618,1.7608,1.7631,1.7627,1.7646,1.7642,1.7643,1.7672,1.7674,1.7699,1.7707,1.772,1.7701,1.7713,1.7696,1.7699,1.7676,1.7678,1.7599,1.759,1.7674,1.7673,1.7672,0,1.7525,1.7518,1.7545,1.7546,1.7557,1.7558,1.7562,1.7593,1.7596,1.7613,1.7606,1.7611,1.7617,1.7618,1.7638,1.7644,1.7655,1.7627,1.7656,1.7647,1.7653,1.7653,1.7652,1.762,1.7619,1.7619,1.7618,0,1.7456,1.747,1.7475,1.7485,1.7489,1.7497,1.7508,1.7507,1.7541,1.7542,1.7545,1.7549,1.7557,1.7561,1.757,1.7581,1.7604,1.7609,1.7604,1.7595,1.7585,1.7589,1.7678,1.761,1.7611,1.7612,1.7612,1.7612,1.7401,1.7396,1.7414,1.7419,1.743,1.7439,1.7437,1.7455,1.7459,1.7468,1.7486,1.7486,1.7501,1.7516,1.7525,1.7525,1.7539,1.7532,1.753,1.7528,1.7523,1.7586,1.7527,1.7527,1.7527,1.7527,1.7527,0,1.7332,1.7346,1.735,1.7364,1.7368,1.7391,1.7404,1.7405,1.7405,1.7417,1.7422,1.7425,1.7429,1.745,1.7456,1.7452,1.7463,1.7452,1.7452,1.7454,1.751,1.7513,1.7443,1.7443,1.7443,1.7443,1.7443,1.7443,1.7297,1.7289,1.7305,1.7303,1.7317,1.7317,1.7323,1.7331,1.7341,1.7343,1.7347,1.7362,1.7378,1.7385,1.7389,1.7395,1.7395,1.7381,1.739,1.7442,1.745,1.7458,1.7461,1.7381,1.7381,1.7334,1.7334,1.7334]}]]